Terminal Aerodrome Forecast
Issued by NWS

Home | Current Version | Previous Version | Text Only | Print | Product List | Glossary On
Versions: 1 2 3 4 5 6 7 8 9 10 11 12 13 14 15 16 17 18 19 20 21 22 23 24 25 26
000
FTUS45 KREV 221100
TAFTRK
TAF
KTRK 221121Z 2212/2312 VRB03KT P6SM SKC
     FM221700 21012KT P6SM SCT100
     FM222000 23013G24KT P6SM SCT100
     FM222300 26016G28KT P6SM SCT100
     FM230200 28012KT P6SM SKC
     FM230500 VRB03KT P6SM SKC=

USA.gov is the U.S. government's official web portal to all federal, state and local government web resources and services.